,,,PA_Meas_PMT16A,,PR_Meas_QMR101_102,,RH_Meas_QMH101,,SR_Meas_QMS101,,TA_Meas_QMH101,,GenWind,,GenWind,
date,time,status,PA,status,PR,status,RH,status,SR,status,TA,status,DirAvg,status,SpdAvg,
2012-04-14, 00:00:05,VALID,1005.48,VALID,0,VALID,92.9961,VALID,0,VALID,24.6185,VALID,358,VALID,0.408203,
2012-04-14, 00:01:05,VALID,1005.49,VALID,0,VALID,93.0037,VALID,0,VALID,24.638,VALID,358,VALID,0.308594,
2012-04-14, 00:02:05,VALID,1005.49,VALID,0,VALID,92.8892,VALID,0,VALID,24.638,VALID,358,VALID,0.414453,
2012-04-14, 00:03:05,VALID,1005.44,VALID,0,VALID,92.8282,VALID,0,VALID,24.6361,VALID,358,VALID,0.403906,
2012-04-14, 00:04:05,VALID,1005.48,VALID,0,VALID,92.8282,VALID,0,VALID,24.6361,VALID,358,VALID,0.267188,
2012-04-14, 00:05:05,VALID,1005.43,VALID,0,VALID,92.7901,VALID,0,VALID,24.6769,VALID,358,VALID,0.216406,
2012-04-14, 00:06:05,VALID,1005.45,VALID,0,VALID,92.6375,VALID,0,VALID,24.6166,VALID,358,VALID,0.305078,
2012-04-14, 00:07:05,VALID,1005.41,VALID,0,VALID,92.6299,VALID,0,VALID,24.5972,VALID,358,VALID,0.195313,
2012-04-14, 00:08:05,VALID,1005.42,VALID,0,VALID,92.7062,VALID,0,VALID,24.5972,VALID,358,VALID,0.0285156,
2012-04-14, 00:09:05,VALID,1005.41,VALID,0,VALID,92.7596,VALID,0,VALID,24.599,VALID,358,VALID,0.145313,
2012-04-14, 00:10:05,VALID,1005.39,VALID,0,VALID,92.7748,VALID,0,VALID,24.599,VALID,358,VALID,0.140234,
2012-04-14, 00:11:05,VALID,1005.4,VALID,0,VALID,92.7596,VALID,0,VALID,24.599,VALID,358,VALID,0.339063,
2012-04-14, 00:12:05,VALID,1005.34,VALID,0,VALID,92.7824,VALID,0,VALID,24.5777,VALID,358,VALID,0.305469,
2012-04-14, 00:13:05,VALID,1005.36,VALID,0,VALID,92.7519,VALID,0,VALID,24.599,VALID,358,VALID,0.195703,
2012-04-14, 00:14:05,VALID,1005.31,VALID,0,VALID,92.7748,VALID,0,VALID,24.5582,VALID,358,VALID,0.106641,
2012-04-14, 00:15:04,VALID,1005.29,VALID,0,VALID,92.7443,VALID,0,VALID,24.5582,VALID,358,VALID,0.273828,
2012-04-14, 00:16:04,VALID,1005.24,VALID,0,VALID,92.6909,VALID,0,VALID,24.5601,VALID,358,VALID,0.392188,
2012-04-14, 00:17:04,VALID,1005.21,VALID,0,VALID,92.7367,VALID,0,VALID,24.5582,VALID,358,VALID,0.0730469,
2012-04-14, 00:18:04,VALID,1005.19,VALID,0,VALID,92.729,VALID,0,VALID,24.5388,VALID,358,VALID,0.128125,
2012-04-14, 00:19:04,VALID,1005.18,VALID,0,VALID,92.7214,VALID,0,VALID,24.5174,VALID,358,VALID,0.208203,
2012-04-14, 00:20:04,VALID,1005.15,VALID,0,VALID,92.7596,VALID,0,VALID,24.5601,VALID,358,VALID,0.00195313,
2012-04-14, 00:21:04,VALID,1005.19,VALID,0,VALID,92.6909,VALID,0,VALID,24.5406,VALID,358,VALID,0.199609,
2012-04-14, 00:22:04,VALID,1005.16,VALID,0,VALID,92.7214,VALID,0,VALID,24.5388,VALID,358,VALID,0,
2012-04-14, 00:23:04,VALID,1005.16,VALID,0,VALID,92.7443,VALID,0,VALID,24.5406,VALID,358,VALID,0,
2012-04-14, 00:24:04,VALID,1005.15,VALID,0,VALID,92.7519,VALID,0,VALID,24.5406,VALID,358,VALID,0,
2012-04-14, 00:25:04,VALID,1005.13,VALID,0,VALID,92.6833,VALID,0,VALID,24.4998,VALID,358,VALID,0,
2012-04-14, 00:26:04,VALID,1005.14,VALID,0,VALID,92.6146,VALID,0,VALID,24.5017,VALID,358,VALID,0,
2012-04-14, 00:27:04,VALID,1005.14,VALID,0,VALID,92.607,VALID,0,VALID,24.4414,VALID,358,VALID,0,
2012-04-14, 00:28:04,VALID,1005.12,VALID,0,VALID,92.6604,VALID,0,VALID,24.422,VALID,358,VALID,0,
2012-04-14, 00:29:04,VALID,1005.13,VALID,0,VALID,92.8816,VALID,0.0815089,VALID,24.4433,VALID,358,VALID,0,
2012-04-14, 00:30:04,VALID,1005.09,VALID,0,VALID,92.9579,VALID,0,VALID,24.422,VALID,358,VALID,0,
2012-04-14, 00:31:04,VALID,1005.09,VALID,0,VALID,93.0037,VALID,0,VALID,24.422,VALID,358,VALID,0,
2012-04-14, 00:32:04,VALID,1005.08,VALID,0,VALID,92.9808,VALID,0,VALID,24.422,VALID,358,VALID,0,
2012-04-14, 00:33:04,VALID,1005.07,VALID,0,VALID,92.9503,VALID,0,VALID,24.4025,VALID,358,VALID,0,
2012-04-14, 00:34:04,VALID,1005.04,VALID,0,VALID,92.9884,VALID,0,VALID,24.4025,VALID,358,VALID,0,
2012-04-14, 00:35:04,VALID,1005.03,VALID,0,VALID,93.0266,VALID,0,VALID,24.383,VALID,358,VALID,0,
2012-04-14, 00:36:04,VALID,1005,VALID,0,VALID,93.08,VALID,0,VALID,24.383,VALID,358,VALID,0,
2012-04-14, 00:37:04,VALID,1004.99,VALID,0,VALID,93.141,VALID,0,VALID,24.4025,VALID,358,VALID,0,
2012-04-14, 00:38:04,VALID,1004.95,VALID,0,VALID,93.1791,VALID,0,VALID,24.4025,VALID,358,VALID,0,
2012-04-14, 00:39:04,VALID,1004.97,VALID,0,VALID,93.1486,VALID,0,VALID,24.4238,VALID,358,VALID,0,
2012-04-14, 00:40:04,VALID,1004.96,VALID,0,VALID,93.0723,VALID,0,VALID,24.383,VALID,358,VALID,0,
2012-04-14, 00:41:04,VALID,1004.94,VALID,0,VALID,93.0876,VALID,0,VALID,24.3636,VALID,358,VALID,0,
2012-04-14, 00:42:04,VALID,1004.94,VALID,0,VALID,93.1563,VALID,0,VALID,24.3636,VALID,358,VALID,0,
2012-04-14, 00:43:04,VALID,1004.92,VALID,0,VALID,93.2173,VALID,0,VALID,24.3654,VALID,358,VALID,0,
2012-04-14, 00:44:04,VALID,1004.94,VALID,0,VALID,93.2402,VALID,0,VALID,24.3441,VALID,358,VALID,0,
2012-04-14, 00:45:04,VALID,1004.93,VALID,0,VALID,93.2097,VALID,0,VALID,24.3849,VALID,358,VALID,0.139453,
2012-04-14, 00:46:04,VALID,1004.92,VALID,0,VALID,93.1944,VALID,0,VALID,24.3654,VALID,358,VALID,0.390625,
2012-04-14, 00:47:04,VALID,1004.9,VALID,0,VALID,93.2402,VALID,0,VALID,24.3459,VALID,358,VALID,0.184766,
2012-04-14, 00:48:04,VALID,1004.9,VALID,0,VALID,93.2707,VALID,0,VALID,24.3441,VALID,358,VALID,0.167187,
2012-04-14, 00:49:04,VALID,1004.91,VALID,0,VALID,93.3012,VALID,0,VALID,24.3441,VALID,358,VALID,0,
2012-04-14, 00:50:04,VALID,1004.89,VALID,0,VALID,93.2936,VALID,0,VALID,24.3654,VALID,358,VALID,0,
2012-04-14, 00:51:04,VALID,1004.91,VALID,0,VALID,93.3241,VALID,0,VALID,24.3636,VALID,358,VALID,0.171094,
2012-04-14, 00:52:04,VALID,1004.93,VALID,0,VALID,93.2859,VALID,0,VALID,24.3654,VALID,358,VALID,0,
2012-04-14, 00:53:04,VALID,1004.94,VALID,0,VALID,93.1944,VALID,0,VALID,24.3052,VALID,358,VALID,0.385938,
2012-04-14, 00:54:04,VALID,1004.94,VALID,0,VALID,93.1639,VALID,0.0815089,VALID,24.2857,VALID,358,VALID,0.151172,
2012-04-14, 00:55:04,VALID,1004.97,VALID,0,VALID,93.1486,VALID,0,VALID,24.2662,VALID,358,VALID,0,
2012-04-14, 00:56:04,VALID,1004.97,VALID,0,VALID,93.1639,VALID,0,VALID,24.2662,VALID,358,VALID,0,
2012-04-14, 00:57:04,VALID,1004.95,VALID,0,VALID,93.2249,VALID,0,VALID,24.2681,VALID,358,VALID,0,
2012-04-14, 00:58:04,VALID,1005,VALID,0,VALID,93.2783,VALID,0,VALID,24.2468,VALID,358,VALID,0,
2012-04-14, 00:59:04,VALID,1004.98,VALID,0,VALID,93.3241,VALID,0,VALID,24.2273,VALID,358,VALID,0,
2012-04-14, 01:00:04,VALID,1004.97,VALID,0,VALID,93.3317,VALID,0,VALID,24.2078,VALID,358,VALID,0,
2012-04-14, 01:01:04,VALID,1004.96,VALID,0,VALID,93.3317,VALID,0,VALID,24.2078,VALID,358,VALID,0,
2012-04-14, 01:02:04,VALID,1004.94,VALID,0,VALID,93.3317,VALID,0,VALID,24.1884,VALID,358,VALID,0,
2012-04-14, 01:03:04,VALID,1004.91,VALID,0,VALID,93.3165,VALID,0,VALID,24.1689,VALID,358,VALID,0,
2012-04-14, 01:04:04,VALID,1004.88,VALID,0,VALID,93.3928,VALID,0,VALID,24.1689,VALID,358,VALID,0,
2012-04-14, 01:05:04,VALID,1004.86,VALID,0,VALID,93.4462,VALID,0,VALID,24.1884,VALID,358,VALID,0,
2012-04-14, 01:06:04,VALID,1004.86,VALID,0,VALID,93.469,VALID,0.0815089,VALID,24.1689,VALID,358,VALID,0,
2012-04-14, 01:07:04,VALID,1004.81,VALID,0,VALID,93.5148,VALID,0,VALID,24.1902,VALID,358,VALID,0,
2012-04-14, 01:08:04,VALID,1004.81,VALID,0,VALID,93.5453,VALID,0.0815089,VALID,24.1476,VALID,358,VALID,0.142578,
2012-04-14, 01:09:04,VALID,1004.78,VALID,0,VALID,93.5682,VALID,0.0815089,VALID,24.1689,VALID,358,VALID,0.313281,
2012-04-14, 01:10:04,VALID,1004.76,VALID,0,VALID,93.6292,VALID,0.0815089,VALID,24.1671,VALID,358,VALID,0.373047,
2012-04-14, 01:11:04,VALID,1004.74,VALID,0,VALID,93.6292,VALID,0.0815089,VALID,24.1689,VALID,358,VALID,0.252734,
2012-04-14, 01:12:04,VALID,1004.74,VALID,0,VALID,93.5987,VALID,0,VALID,24.1689,VALID,358,VALID,0.337109,
2012-04-14, 01:13:04,VALID,1004.75,VALID,0,VALID,93.5453,VALID,0.0815089,VALID,24.1689,VALID,358,VALID,0.360156,
2012-04-14, 01:14:04,VALID,1004.73,VALID,0,VALID,93.5224,VALID,0,VALID,24.1494,VALID,358,VALID,0.364062,
2012-04-14, 01:15:04,VALID,1004.75,VALID,0,VALID,93.5835,VALID,0.0815089,VALID,24.1494,VALID,358,VALID,0.207813,
2012-04-14, 01:16:04,VALID,1004.71,VALID,0,VALID,93.6292,VALID,0.0815089,VALID,24.1281,VALID,358,VALID,0,
2012-04-14, 01:17:04,VALID,1004.7,VALID,0,VALID,93.6674,VALID,0,VALID,24.1494,VALID,358,VALID,0.348828,
2012-04-14, 01:18:04,VALID,1004.69,VALID,0,VALID,93.6979,VALID,0.0815089,VALID,24.1884,VALID,358,VALID,0.335547,
2012-04-14, 01:19:04,VALID,1004.63,VALID,0,VALID,93.7361,VALID,0.0815089,VALID,24.1689,VALID,358,VALID,0.416016,
2012-04-14, 01:20:04,VALID,1004.65,VALID,0,VALID,93.7513,VALID,0,VALID,24.1902,VALID,358,VALID,0.405469,
2012-04-14, 01:21:04,VALID,1004.6,VALID,0,VALID,93.7513,VALID,0,VALID,24.1884,VALID,358,VALID,0.414063,
2012-04-14, 01:22:04,VALID,1004.6,VALID,0,VALID,93.7513,VALID,0.0815089,VALID,24.2078,VALID,358,VALID,0.443359,
2012-04-14, 01:23:04,VALID,1004.56,VALID,0,VALID,93.6903,VALID,0,VALID,24.1865,VALID,358,VALID,0.467969,
2012-04-14, 01:24:04,VALID,1004.54,VALID,0,VALID,93.6445,VALID,0.0815089,VALID,24.1884,VALID,358,VALID,0.365625,
2012-04-14, 01:25:04,VALID,1004.54,VALID,0,VALID,93.6445,VALID,0,VALID,24.1884,VALID,358,VALID,0.483594,
2012-04-14, 01:26:04,VALID,1004.51,VALID,0,VALID,93.6292,VALID,0,VALID,24.1884,VALID,358,VALID,0.430078,
2012-04-14, 01:27:04,VALID,1004.54,VALID,0,VALID,93.675,VALID,0.0815089,VALID,24.2078,VALID,358,VALID,0.328906,
2012-04-14, 01:28:04,VALID,1004.55,VALID,0,VALID,93.7361,VALID,0,VALID,24.1865,VALID,358,VALID,0.465625,
2012-04-14, 01:29:04,VALID,1004.54,VALID,0,VALID,93.7437,VALID,0.0815089,VALID,24.2255,VALID,358,VALID,0.420703,
2012-04-14, 01:30:04,VALID,1004.57,VALID,0,VALID,93.6521,VALID,0.0815089,VALID,24.2078,VALID,358,VALID,0.430469,
2012-04-14, 01:31:04,VALID,1004.53,VALID,0,VALID,93.6216,VALID,0,VALID,24.2078,VALID,358,VALID,0.403516,
2012-04-14, 01:32:04,VALID,1004.52,VALID,0,VALID,93.5987,VALID,0,VALID,24.1884,VALID,358,VALID,0.352344,
2012-04-14, 01:33:04,VALID,1004.54,VALID,0,VALID,93.5758,VALID,0,VALID,24.1902,VALID,358,VALID,0.335156,
2012-04-14, 01:34:04,VALID,1004.53,VALID,0,VALID,93.614,VALID,0.0815089,VALID,24.1689,VALID,358,VALID,0.272266,
2012-04-14, 01:35:04,VALID,1004.55,VALID,0,VALID,93.6445,VALID,0,VALID,24.1689,VALID,358,VALID,0.159375,
2012-04-14, 01:36:04,VALID,1004.54,VALID,0,VALID,93.6674,VALID,0.0815089,VALID,24.1884,VALID,358,VALID,0.2375,
2012-04-14, 01:37:04,VALID,1004.52,VALID,0,VALID,93.6598,VALID,0.0815089,VALID,24.1671,VALID,358,VALID,0.3125,
2012-04-14, 01:38:04,VALID,1004.53,VALID,0,VALID,93.7208,VALID,0,VALID,24.2273,VALID,358,VALID,0.55,
2012-04-14, 01:39:04,VALID,1004.54,VALID,0,VALID,93.7437,VALID,0,VALID,24.2681,VALID,358,VALID,0.304688,
2012-04-14, 01:40:04,VALID,1004.54,VALID,0,VALID,93.6292,VALID,0,VALID,24.2273,VALID,358,VALID,0.220313,
2012-04-14, 01:41:04,VALID,1004.53,VALID,0,VALID,93.5606,VALID,0,VALID,24.2681,VALID,358,VALID,0.407422,
2012-04-14, 01:42:04,VALID,1004.5,VALID,0,VALID,93.5072,VALID,0,VALID,24.2468,VALID,358,VALID,0.268359,
2012-04-14, 01:43:04,VALID,1004.5,VALID,0,VALID,93.4309,VALID,0,VALID,24.2273,VALID,359,VALID,0.414844,
2012-04-14, 01:44:04,VALID,1004.48,VALID,0,VALID,93.3546,VALID,0,VALID,24.2078,VALID,359,VALID,0.233984,
2012-04-14, 01:45:04,VALID,1004.46,VALID,0,VALID,93.3775,VALID,0,VALID,24.2078,VALID,359,VALID,0.220703,
2012-04-14, 01:46:04,VALID,1004.45,VALID,0,VALID,93.3699,VALID,0,VALID,24.1689,VALID,359,VALID,0.369922,
2012-04-14, 01:47:04,VALID,1004.43,VALID,0,VALID,93.3622,VALID,0,VALID,24.1689,VALID,359,VALID,0.278516,
2012-04-14, 01:48:04,VALID,1004.41,VALID,0,VALID,93.4156,VALID,0,VALID,24.1494,VALID,359,VALID,0.171094,
2012-04-14, 01:49:04,VALID,1004.38,VALID,0,VALID,93.4538,VALID,0,VALID,24.1281,VALID,359,VALID,0.379687,
2012-04-14, 01:50:04,VALID,1004.4,VALID,0,VALID,93.4462,VALID,0,VALID,24.13,VALID,359,VALID,0.200781,
2012-04-14, 01:51:04,VALID,1004.39,VALID,0,VALID,93.4538,VALID,0,VALID,24.1513,VALID,359,VALID,0,
2012-04-14, 01:52:04,VALID,1004.38,VALID,0,VALID,93.4462,VALID,0,VALID,24.1105,VALID,359,VALID,0,
2012-04-14, 01:53:04,VALID,1004.34,VALID,0,VALID,93.4462,VALID,0,VALID,24.091,VALID,359,VALID,0,
2012-04-14, 01:54:04,VALID,1004.36,VALID,0,VALID,93.4614,VALID,0,VALID,24.0929,VALID,359,VALID,0.096875,
2012-04-14, 01:55:04,VALID,1004.37,VALID,0,VALID,93.4614,VALID,0,VALID,24.0716,VALID,359,VALID,0,
2012-04-14, 01:56:04,VALID,1004.35,VALID,0,VALID,93.4843,VALID,0,VALID,24.0716,VALID,359,VALID,0,
2012-04-14, 01:57:04,VALID,1004.35,VALID,0,VALID,93.5224,VALID,0,VALID,24.0308,VALID,359,VALID,0,
2012-04-14, 01:58:04,VALID,1004.33,VALID,0,VALID,93.6216,VALID,0,VALID,24.0929,VALID,359,VALID,0,
2012-04-14, 01:59:04,VALID,1004.35,VALID,0,VALID,93.6292,VALID,0,VALID,24.0521,VALID,359,VALID,0,
2012-04-14, 02:00:04,VALID,1004.36,VALID,0,VALID,93.6521,VALID,0,VALID,24.0716,VALID,359,VALID,0,
2012-04-14, 02:01:04,VALID,1004.35,VALID,0,VALID,93.6979,VALID,0,VALID,24.0716,VALID,359,VALID,0,
2012-04-14, 02:02:04,VALID,1004.33,VALID,0,VALID,93.7132,VALID,0,VALID,24.0521,VALID,359,VALID,0,
2012-04-14, 02:03:04,VALID,1004.29,VALID,0,VALID,93.7437,VALID,0.0815089,VALID,24.0521,VALID,359,VALID,0,
2012-04-14, 02:04:04,VALID,1004.28,VALID,0,VALID,93.7132,VALID,0,VALID,24.0734,VALID,359,VALID,0,
2012-04-14, 02:05:04,VALID,1004.27,VALID,0,VALID,93.7208,VALID,0,VALID,24.0539,VALID,359,VALID,0,
2012-04-14, 02:06:04,VALID,1004.24,VALID,0,VALID,93.7895,VALID,0,VALID,24.0521,VALID,359,VALID,0,
2012-04-14, 02:07:04,VALID,1004.21,VALID,0,VALID,93.7895,VALID,0,VALID,24.0716,VALID,359,VALID,0,
2012-04-14, 02:08:04,VALID,1004.23,VALID,0,VALID,93.7284,VALID,0,VALID,24.0521,VALID,359,VALID,0,
2012-04-14, 02:09:04,VALID,1004.22,VALID,0,VALID,93.6903,VALID,0,VALID,24.0539,VALID,359,VALID,0,
2012-04-14, 02:10:04,VALID,1004.2,VALID,0,VALID,93.7437,VALID,0,VALID,24.0326,VALID,359,VALID,0,
2012-04-14, 02:11:04,VALID,1004.22,VALID,0,VALID,93.8276,VALID,0,VALID,24.0539,VALID,359,VALID,0,
2012-04-14, 02:12:04,VALID,1004.22,VALID,0,VALID,93.7971,VALID,0,VALID,24.0539,VALID,359,VALID,0,
2012-04-14, 02:13:04,VALID,1004.22,VALID,0,VALID,93.8352,VALID,0,VALID,24.0539,VALID,359,VALID,0,
2012-04-14, 02:14:04,VALID,1004.19,VALID,0,VALID,93.8505,VALID,0.0815089,VALID,24.0716,VALID,359,VALID,0,
2012-04-14, 02:15:04,VALID,1004.18,VALID,0,VALID,93.881,VALID,0,VALID,24.0539,VALID,359,VALID,0,
2012-04-14, 02:16:04,VALID,1004.15,VALID,0,VALID,93.9802,VALID,0,VALID,24.0929,VALID,359,VALID,0,
2012-04-14, 02:17:04,VALID,1004.15,VALID,0,VALID,93.9497,VALID,0,VALID,24.0929,VALID,359,VALID,0,
2012-04-14, 02:18:04,VALID,1004.15,VALID,0,VALID,93.881,VALID,0,VALID,24.0716,VALID,359,VALID,0,
2012-04-14, 02:19:04,VALID,1004.14,VALID,0,VALID,93.8429,VALID,0,VALID,24.0539,VALID,359,VALID,0,
2012-04-14, 02:20:04,VALID,1004.18,VALID,0,VALID,93.8123,VALID,0,VALID,24.0326,VALID,359,VALID,0,
2012-04-14, 02:21:04,VALID,1004.2,VALID,0,VALID,93.8123,VALID,0,VALID,24.0326,VALID,359,VALID,0,
2012-04-14, 02:22:04,VALID,1004.19,VALID,0,VALID,93.8352,VALID,0,VALID,24.0326,VALID,359,VALID,0,
2012-04-14, 02:23:04,VALID,1004.23,VALID,0,VALID,93.82,VALID,0,VALID,23.9937,VALID,359,VALID,0,
2012-04-14, 02:24:04,VALID,1004.23,VALID,0,VALID,93.82,VALID,0,VALID,23.9742,VALID,359,VALID,0,
2012-04-14, 02:25:04,VALID,1004.25,VALID,0,VALID,93.8505,VALID,0,VALID,23.9955,VALID,359,VALID,0,
2012-04-14, 02:26:04,VALID,1004.23,VALID,0,VALID,93.8581,VALID,0,VALID,23.9955,VALID,359,VALID,0,
2012-04-14, 02:27:04,VALID,1004.24,VALID,0,VALID,93.9268,VALID,0,VALID,23.9742,VALID,359,VALID,0,
2012-04-14, 02:28:04,VALID,1004.2,VALID,0,VALID,93.942,VALID,0,VALID,23.9955,VALID,359,VALID,0,
2012-04-14, 02:29:04,VALID,1004.18,VALID,0,VALID,93.881,VALID,0,VALID,23.9548,VALID,359,VALID,0,
2012-04-14, 02:30:04,VALID,1004.2,VALID,0,VALID,93.9191,VALID,0,VALID,23.9761,VALID,359,VALID,0,
2012-04-14, 02:31:04,VALID,1004.18,VALID,0,VALID,94.0031,VALID,0,VALID,23.9548,VALID,359,VALID,0,
2012-04-14, 02:32:04,VALID,1004.17,VALID,0,VALID,94.0336,VALID,0,VALID,23.9548,VALID,359,VALID,0,
2012-04-14, 02:33:04,VALID,1004.18,VALID,0,VALID,94.0031,VALID,0,VALID,23.9548,VALID,359,VALID,0,
2012-04-14, 02:34:04,VALID,1004.18,VALID,0,VALID,93.9878,VALID,0,VALID,23.9353,VALID,359,VALID,0,
2012-04-14, 02:35:04,VALID,1004.19,VALID,0,VALID,94.0107,VALID,0,VALID,23.9353,VALID,359,VALID,0,
2012-04-14, 02:36:04,VALID,1004.19,VALID,0,VALID,94.0641,VALID,0,VALID,23.9353,VALID,359,VALID,0,
2012-04-14, 02:37:04,VALID,1004.18,VALID,0,VALID,94.0794,VALID,0,VALID,23.9353,VALID,359,VALID,0,
2012-04-14, 02:38:04,VALID,1004.21,VALID,0,VALID,94.087,VALID,0.0815089,VALID,23.9353,VALID,359,VALID,0,
2012-04-14, 02:39:04,VALID,1004.19,VALID,0,VALID,94.0717,VALID,0,VALID,23.9177,VALID,359,VALID,0,
2012-04-14, 02:40:04,VALID,1004.16,VALID,0,VALID,94.1022,VALID,0,VALID,23.9584,VALID,359,VALID,0,
2012-04-14, 02:41:04,VALID,1004.17,VALID,0,VALID,94.1709,VALID,0,VALID,23.9566,VALID,359,VALID,0,
2012-04-14, 02:42:04,VALID,1004.16,VALID,0,VALID,94.148,VALID,0,VALID,23.9566,VALID,359,VALID,0,
2012-04-14, 02:43:04,VALID,1004.15,VALID,0,VALID,94.087,VALID,0,VALID,23.8964,VALID,359,VALID,0,
2012-04-14, 02:44:04,VALID,1004.16,VALID,0,VALID,94.1251,VALID,0,VALID,23.9389,VALID,359,VALID,0,
2012-04-14, 02:45:04,VALID,1004.16,VALID,0,VALID,94.1633,VALID,0,VALID,23.9371,VALID,359,VALID,0,
2012-04-14, 02:46:04,VALID,1004.16,VALID,0,VALID,94.1938,VALID,0,VALID,23.9177,VALID,359,VALID,0,
2012-04-14, 02:47:04,VALID,1004.14,VALID,0,VALID,94.2243,VALID,0,VALID,23.9177,VALID,359,VALID,0,
2012-04-14, 02:48:04,VALID,1004.14,VALID,0,VALID,94.2396,VALID,0,VALID,23.9371,VALID,359,VALID,0,
2012-04-14, 02:49:04,VALID,1004.15,VALID,0,VALID,94.2243,VALID,0,VALID,23.9584,VALID,359,VALID,0,
2012-04-14, 02:50:04,VALID,1004.14,VALID,0,VALID,94.2548,VALID,0,VALID,23.9371,VALID,359,VALID,0,
2012-04-14, 02:51:04,VALID,1004.16,VALID,0,VALID,94.2319,VALID,0,VALID,23.9371,VALID,359,VALID,0,
2012-04-14, 02:52:04,VALID,1004.17,VALID,0,VALID,94.2396,VALID,0,VALID,23.9177,VALID,359,VALID,0,
2012-04-14, 02:53:04,VALID,1004.16,VALID,0,VALID,94.2548,VALID,0,VALID,23.9584,VALID,359,VALID,0,
2012-04-14, 02:54:04,VALID,1004.16,VALID,0,VALID,94.2548,VALID,0,VALID,23.9353,VALID,359,VALID,0,
2012-04-14, 02:55:04,VALID,1004.16,VALID,0,VALID,94.2243,VALID,0,VALID,23.8946,VALID,359,VALID,0,
2012-04-14, 02:56:04,VALID,1004.16,VALID,0,VALID,94.2548,VALID,0,VALID,23.9371,VALID,359,VALID,0,
2012-04-14, 02:57:04,VALID,1004.13,VALID,0,VALID,94.2396,VALID,0,VALID,23.9159,VALID,359,VALID,0,
2012-04-14, 02:58:04,VALID,1004.15,VALID,0,VALID,94.2548,VALID,0,VALID,23.8964,VALID,359,VALID,0,
2012-04-14, 02:59:04,VALID,1004.14,VALID,0,VALID,94.2396,VALID,0,VALID,23.9159,VALID,359,VALID,0,
2012-04-14, 03:00:04,VALID,1004.16,VALID,0,VALID,94.2472,VALID,0,VALID,23.8964,VALID,359,VALID,0,
2012-04-14, 03:01:04,VALID,1004.13,VALID,0,VALID,94.2853,VALID,0,VALID,23.9177,VALID,359,VALID,0,
2012-04-14, 03:02:04,VALID,1004.16,VALID,0,VALID,94.2853,VALID,0,VALID,23.8751,VALID,359,VALID,0,
2012-04-14, 03:03:04,VALID,1004.14,VALID,0,VALID,94.293,VALID,0,VALID,23.8964,VALID,359,VALID,0,
2012-04-14, 03:04:04,VALID,1004.14,VALID,0,VALID,94.3616,VALID,0,VALID,23.8964,VALID,359,VALID,0,
2012-04-14, 03:05:04,VALID,1004.13,VALID,0,VALID,94.3464,VALID,0.0815089,VALID,23.8964,VALID,359,VALID,0,
2012-04-14, 03:06:04,VALID,1004.13,VALID,0,VALID,94.3616,VALID,0,VALID,23.8964,VALID,359,VALID,0,
2012-04-14, 03:07:04,VALID,1004.11,VALID,0,VALID,94.3769,VALID,0,VALID,23.9159,VALID,359,VALID,0,
2012-04-14, 03:08:04,VALID,1004.11,VALID,0,VALID,94.3692,VALID,0,VALID,23.8964,VALID,359,VALID,0,
2012-04-14, 03:09:04,VALID,1004.14,VALID,0,VALID,94.3387,VALID,0,VALID,23.8769,VALID,359,VALID,0,
2012-04-14, 03:10:04,VALID,1004.14,VALID,0,VALID,94.3464,VALID,0,VALID,23.8964,VALID,359,VALID,0,
2012-04-14, 03:11:04,VALID,1004.15,VALID,0,VALID,94.3692,VALID,0,VALID,23.8769,VALID,359,VALID,0,
2012-04-14, 03:12:04,VALID,1004.16,VALID,0,VALID,94.3921,VALID,0,VALID,23.8964,VALID,359,VALID,0,
2012-04-14, 03:13:04,VALID,1004.19,VALID,0,VALID,94.4303,VALID,0,VALID,23.8982,VALID,359,VALID,0.637891,
2012-04-14, 03:14:04,VALID,1004.18,VALID,0,VALID,94.4532,VALID,0,VALID,23.8946,VALID,359,VALID,0.543359,
2012-04-14, 03:15:04,VALID,1004.19,VALID,0,VALID,94.4608,VALID,0,VALID,23.8964,VALID,359,VALID,0.535156,
2012-04-14, 03:16:04,VALID,1004.18,VALID,0,VALID,94.4532,VALID,0,VALID,23.8964,VALID,359,VALID,0.364062,
2012-04-14, 03:17:04,VALID,1004.18,VALID,0,VALID,94.4532,VALID,0,VALID,23.8964,VALID,359,VALID,0.341406,
2012-04-14, 03:18:04,VALID,1004.21,VALID,0,VALID,94.4227,VALID,0,VALID,23.8964,VALID,359,VALID,0.0597656,
2012-04-14, 03:19:04,VALID,1004.22,VALID,0,VALID,94.4303,VALID,0,VALID,23.8964,VALID,359,VALID,0,
2012-04-14, 03:20:04,VALID,1004.2,VALID,0,VALID,94.4074,VALID,0,VALID,23.8769,VALID,359,VALID,0,
2012-04-14, 03:21:04,VALID,1004.2,VALID,0,VALID,94.4074,VALID,0,VALID,23.8769,VALID,359,VALID,0,
2012-04-14, 03:22:04,VALID,1004.22,VALID,0,VALID,94.3998,VALID,0,VALID,23.8575,VALID,359,VALID,0,
2012-04-14, 03:23:04,VALID,1004.23,VALID,0,VALID,94.3921,VALID,0,VALID,23.8575,VALID,359,VALID,0,
2012-04-14, 03:24:04,VALID,1004.26,VALID,0,VALID,94.4074,VALID,0,VALID,23.8787,VALID,359,VALID,0,
2012-04-14, 03:25:04,VALID,1004.26,VALID,0,VALID,94.4074,VALID,0,VALID,23.8575,VALID,359,VALID,0,
2012-04-14, 03:26:04,VALID,1004.25,VALID,0,VALID,94.4455,VALID,0,VALID,23.8769,VALID,359,VALID,0,
2012-04-14, 03:27:04,VALID,1004.28,VALID,0,VALID,94.4684,VALID,0,VALID,23.8769,VALID,359,VALID,0,
2012-04-14, 03:28:04,VALID,1004.28,VALID,0,VALID,94.4608,VALID,0,VALID,23.8982,VALID,359,VALID,0,
2012-04-14, 03:29:04,VALID,1004.29,VALID,0,VALID,94.415,VALID,0,VALID,23.8575,VALID,359,VALID,0,
2012-04-14, 03:30:04,VALID,1004.3,VALID,0,VALID,94.3845,VALID,0,VALID,23.8398,VALID,359,VALID,0,
2012-04-14, 03:31:04,VALID,1004.27,VALID,0,VALID,94.3769,VALID,0,VALID,23.7973,VALID,359,VALID,0.360547,
2012-04-14, 03:32:04,VALID,1004.29,VALID,0,VALID,94.3387,VALID,0,VALID,23.8203,VALID,359,VALID,0.357031,
2012-04-14, 03:33:04,VALID,1004.28,VALID,0,VALID,94.3235,VALID,0,VALID,23.7601,VALID,359,VALID,0.304297,
2012-04-14, 03:34:04,VALID,1004.26,VALID,0,VALID,94.3387,VALID,0,VALID,23.7194,VALID,359,VALID,0.186328,
2012-04-14, 03:35:04,VALID,1004.27,VALID,0,VALID,94.354,VALID,0,VALID,23.7619,VALID,359,VALID,0,
2012-04-14, 03:36:04,VALID,1004.25,VALID,0,VALID,94.3845,VALID,0,VALID,23.7407,VALID,359,VALID,0,
2012-04-14, 03:37:04,VALID,1004.23,VALID,0,VALID,94.4074,VALID,0,VALID,23.7407,VALID,359,VALID,0,
2012-04-14, 03:38:04,VALID,1004.24,VALID,0,VALID,94.4532,VALID,0,VALID,23.7601,VALID,359,VALID,0,
2012-04-14, 03:39:04,VALID,1004.29,VALID,0,VALID,94.4608,VALID,0.0815089,VALID,23.7389,VALID,359,VALID,0,
2012-04-14, 03:40:04,VALID,1004.27,VALID,0,VALID,94.4455,VALID,0.0815089,VALID,23.7407,VALID,359,VALID,0,
2012-04-14, 03:41:04,VALID,1004.26,VALID,0,VALID,94.4837,VALID,0,VALID,23.7814,VALID,359,VALID,0,
2012-04-14, 03:42:04,VALID,1004.31,VALID,0,VALID,94.4913,VALID,0,VALID,23.7601,VALID,359,VALID,0,
2012-04-14, 03:43:04,VALID,1004.35,VALID,0,VALID,94.4989,VALID,0,VALID,23.7619,VALID,359,VALID,0,
2012-04-14, 03:44:04,VALID,1004.4,VALID,0,VALID,94.5447,VALID,0,VALID,23.7601,VALID,359,VALID,0,
2012-04-14, 03:45:04,VALID,1004.42,VALID,0,VALID,94.5676,VALID,0,VALID,23.7796,VALID,359,VALID,0,
2012-04-14, 03:46:04,VALID,1004.44,VALID,0,VALID,94.5218,VALID,0,VALID,23.8009,VALID,359,VALID,0,
2012-04-14, 03:47:04,VALID,1004.43,VALID,0,VALID,94.5142,VALID,0,VALID,23.7601,VALID,359,VALID,0,
2012-04-14, 03:48:04,VALID,1004.41,VALID,0,VALID,94.4761,VALID,0,VALID,23.7796,VALID,359,VALID,0,
2012-04-14, 03:49:04,VALID,1004.39,VALID,0,VALID,94.5447,VALID,0,VALID,23.7407,VALID,359,VALID,0,
2012-04-14, 03:50:04,VALID,1004.36,VALID,0,VALID,94.5676,VALID,0,VALID,23.7796,VALID,359,VALID,0,
2012-04-14, 03:51:04,VALID,1004.31,VALID,0,VALID,94.5523,VALID,0,VALID,23.7796,VALID,359,VALID,0.735156,
2012-04-14, 03:52:04,VALID,1004.31,VALID,0,VALID,94.5447,VALID,0,VALID,23.7601,VALID,359,VALID,0.623438,